When you browse on this site, cookies collect data to enhance your experience and personalize the content and advertising you see.
Visit our Privacy Policy to learn more. By continuing to use the site, you agree to this use of cookies and data.

Hourly Weather Sallama

Today, 14 August, Friday

Time Temperature Precipitation Wind Pressure Humidity
00:00 +24°C° 0 mm 1 mps 734 mmHg 89%
01:00 +24°C° 0 mm 1 mps 734 mmHg 90%
02:00 +24°C° 0 mm 1 mps 734 mmHg 91%
03:00 +23°C° 0 mm 1 mps 734 mmHg 92%
04:00 +23°C° 0 mm 1 mps 734 mmHg 92%
05:00 +23°C° 0 mm 1 mps 734 mmHg 93%
06:00 +25°C° 0 mm 1 mps 734 mmHg 82%
07:00 +28°C° 0 mm 2 mps 735 mmHg 72%
08:00 +30°C° 0 mm 2 mps 735 mmHg 62%
09:00 +33°C° 0 mm 3 mps 735 mmHg 54%
10:00 +35°C° 0 mm 4 mps 735 mmHg 45%
11:00 +37°C° 0 mm 4 mps 735 mmHg 37%
12:00 +37°C° 0 mm 5 mps 734 mmHg 37%
13:00 +38°C° 0 mm 6 mps 734 mmHg 38%
14:00 +36°C° 0 mm 7 mps 734 mmHg 38%
15:00 +35°C° 0 mm 6 mps 734 mmHg 44%
16:00 +34°C° 0 mm 6 mps 733 mmHg 49%
17:00 +33°C° 0 mm 6 mps 733 mmHg 55%
18:00 +30°C° 0 mm 4 mps 733 mmHg 66%
19:00 +28°C° 0 mm 3 mps 733 mmHg 77%
20:00 +26°C° 0 mm 2 mps 733 mmHg 89%
21:00 +25°C° 0 mm 2 mps 733 mmHg 89%
22:00 +25°C° 0 mm 2 mps 733 mmHg 89%
23:00 +25°C° 0 mm 1 mps 733 mmHg 89%

Tomorrow, 15 August, Saturday

Time Temperature Precipitation Wind Pressure Humidity
00:00 +25°C° 0 mm 1 mps 733 mmHg 88%
01:00 +24°C° 0 mm 1 mps 733 mmHg 86%
02:00 +24°C° 0 mm 1 mps 732 mmHg 85%
03:00 +24°C° 0 mm 1 mps 732 mmHg 87%
04:00 +23°C° 0 mm 1 mps 732 mmHg 89%
05:00 +23°C° 0 mm 1 mps 732 mmHg 91%
06:00 +25°C° 0 mm 1 mps 733 mmHg 82%
07:00 +27°C° 0 mm 2 mps 733 mmHg 73%
08:00 +30°C° 0 mm 2 mps 733 mmHg 64%
09:00 +33°C° 0 mm 3 mps 733 mmHg 55%
10:00 +35°C° 0 mm 3 mps 733 mmHg 46%
11:00 +37°C° 0 mm 4 mps 733 mmHg 37%
12:00 +37°C° 0 mm 5 mps 733 mmHg 36%
13:00 +38°C° 0 mm 6 mps 733 mmHg 35%
14:00 +38°C° 0 mm 7 mps 733 mmHg 34%
15:00 +36°C° 0 mm 6 mps 733 mmHg 37%
16:00 +35°C° 0 mm 5 mps 732 mmHg 41%
17:00 +34°C° 0 mm 5 mps 732 mmHg 45%
18:00 +30°C° 0 mm 4 mps 732 mmHg 57%
19:00 +28°C° 0 mm 3 mps 733 mmHg 69%
20:00 +26°C° 0 mm 2 mps 733 mmHg 82%
21:00 +25°C° 0 mm 2 mps 733 mmHg 82%
22:00 +25°C° 0 mm 1 mps 732 mmHg 82%
23:00 +24°C° 0 mm 1 mps 732 mmHg 82%

Day after tomorrow, 16 August, Sunday

Time Temperature Precipitation Wind Pressure Humidity
00:00 +24°C° 0 mm 1 mps 732 mmHg 84%
01:00 +24°C° 0 mm 1 mps 732 mmHg 86%
02:00 +23°C° 0 mm 1 mps 732 mmHg 88%
03:00 +23°C° 0 mm 1 mps 732 mmHg 89%
04:00 +23°C° 0 mm 1 mps 732 mmHg 89%
05:00 +23°C° 0 mm 1 mps 732 mmHg 90%
06:00 +25°C° 0 mm 1 mps 733 mmHg 78%
07:00 +28°C° 0 mm 1 mps 733 mmHg 66%
08:00 +30°C° 0 mm 2 mps 733 mmHg 54%
09:00 +32°C° 0 mm 2 mps 734 mmHg 46%
10:00 +35°C° 0 mm 3 mps 734 mmHg 38%
11:00 +38°C° 0 mm 4 mps 734 mmHg 30%
12:00 +38°C° 0 mm 4 mps 734 mmHg 29%
13:00 +39°C° 0 mm 5 mps 734 mmHg 29%
14:00 +39°C° 0 mm 6 mps 733 mmHg 29%
15:00 +36°C° 0 mm 6 mps 733 mmHg 36%
16:00 +35°C° 0 mm 5 mps 733 mmHg 42%
17:00 +33°C° 0 mm 5 mps 733 mmHg 48%
18:00 +30°C° 0 mm 4 mps 733 mmHg 59%
19:00 +27°C° 0 mm 3 mps 734 mmHg 70%
20:00 +25°C° 0 mm 2 mps 734 mmHg 81%
21:00 +24°C° 0 mm 1 mps 734 mmHg 79%
22:00 +24°C° 0 mm 1 mps 734 mmHg 78%
23:00 +24°C° 0 mm 1 mps 733 mmHg 76%

17 August, Monday

Time Temperature Precipitation Wind Pressure Humidity
00:00 +23°C° 0 mm 1 mps 733 mmHg 74%
01:00 +21°C° 0 mm 0 mps 733 mmHg 72%
02:00 +21°C° 0 mm 0 mps 733 mmHg 70%
03:00 +21°C° 0 mm 0 mps 733 mmHg 69%
04:00 +21°C° 0 mm 0 mps 733 mmHg 68%
05:00 +22°C° 0 mm 1 mps 733 mmHg 68%
06:00 +25°C° 0 mm 1 mps 734 mmHg 61%
07:00 +28°C° 0 mm 1 mps 734 mmHg 54%
08:00 +30°C° 0 mm 2 mps 735 mmHg 47%
09:00 +32°C° 0 mm 2 mps 735 mmHg 41%
10:00 +35°C° 0 mm 3 mps 735 mmHg 35%
11:00 +37°C° 0 mm 4 mps 735 mmHg 30%
12:00 +37°C° 0 mm 4 mps 735 mmHg 30%
13:00 +37°C° 0 mm 5 mps 735 mmHg 30%
14:00 +38°C° 0 mm 6 mps 734 mmHg 30%
15:00 +36°C° 0 mm 5 mps 734 mmHg 35%
16:00 +34°C° 0 mm 5 mps 734 mmHg 41%
17:00 +33°C° 0 mm 4 mps 734 mmHg 47%
18:00 +30°C° 0 mm 3 mps 734 mmHg 57%
19:00 +27°C° 0 mm 2 mps 734 mmHg 68%
20:00 +25°C° 0 mm 2 mps 734 mmHg 78%
21:00 +24°C° 0 mm 1 mps 734 mmHg 76%
22:00 +24°C° 0 mm 1 mps 734 mmHg 74%
23:00 +21°C° 0 mm 0 mps 734 mmHg 72%

18 August, Tuesday

Time Temperature Precipitation Wind Pressure Humidity
00:00 +21°C° 0 mm 0 mps 734 mmHg 73%
01:00 +23°C° 0 mm 1 mps 734 mmHg 74%
02:00 +22°C° 0 mm 1 mps 734 mmHg 75%
03:00 +22°C° 0 mm 1 mps 734 mmHg 80%
04:00 +22°C° 0 mm 1 mps 734 mmHg 84%
05:00 +21°C° 0 mm 1 mps 734 mmHg 88%
06:00 +24°C° 0 mm 1 mps 734 mmHg 79%
07:00 +26°C° 0 mm 2 mps 734 mmHg 69%
08:00 +29°C° 0 mm 2 mps 735 mmHg 60%
09:00 +31°C° 0 mm 3 mps 734 mmHg 52%
10:00 +34°C° 0 mm 4 mps 734 mmHg 44%
11:00 +36°C° 0 mm 4 mps 734 mmHg 36%
12:00 +36°C° 0 mm 5 mps 734 mmHg 37%
13:00 +36°C° 0 mm 5 mps 734 mmHg 37%
14:00 +36°C° 0 mm 6 mps 733 mmHg 38%
15:00 +34°C° 0 mm 6 mps 733 mmHg 43%
16:00 +33°C° 0 mm 5 mps 733 mmHg 48%
17:00 +32°C° 0 mm 5 mps 733 mmHg 54%
18:00 +28°C° 0 mm 4 mps 733 mmHg 64%
19:00 +26°C° 0 mm 3 mps 733 mmHg 73%
20:00 +24°C° 0 mm 2 mps 733 mmHg 83%
21:00 +24°C° 0 mm 2 mps 733 mmHg 85%
22:00 +24°C° 0 mm 1 mps 733 mmHg 86%
23:00 +23°C° 0 mm 1 mps 733 mmHg 87%

19 August, Wednesday

Time Temperature Precipitation Wind Pressure Humidity
00:00 +23°C° 0 mm 1 mps 733 mmHg 88%
01:00 +23°C° 0 mm 1 mps 733 mmHg 89%
02:00 +23°C° 0 mm 1 mps 732 mmHg 90%
03:00 +22°C° 0 mm 1 mps 732 mmHg 90%
04:00 +22°C° 0 mm 1 mps 732 mmHg 91%
05:00 +22°C° 0 mm 1 mps 732 mmHg 92%
06:00 +24°C° 0 mm 1 mps 732 mmHg 83%
07:00 +26°C° 0 mm 2 mps 733 mmHg 74%
08:00 +29°C° 0 mm 2 mps 733 mmHg 64%
09:00 +31°C° 0 mm 3 mps 733 mmHg 56%
10:00 +34°C° 0 mm 4 mps 733 mmHg 48%
11:00 +36°C° 0 mm 5 mps 733 mmHg 40%
12:00 +36°C° 0 mm 5 mps 733 mmHg 41%
13:00 +36°C° 0 mm 6 mps 733 mmHg 41%
14:00 +36°C° 0 mm 6 mps 732 mmHg 41%
15:00 +34°C° 0 mm 6 mps 732 mmHg 47%
16:00 +33°C° 0 mm 5 mps 732 mmHg 52%
17:00 +30°C° 0 mm 5 mps 732 mmHg 58%
18:00 +29°C° 0 mm 4 mps 732 mmHg 68%
19:00 +27°C° 0 mm 3 mps 732 mmHg 78%
20:00 +25°C° 0 mm 2 mps 732 mmHg 88%
21:00 +24°C° 0 mm 2 mps 732 mmHg 88%
22:00 +24°C° 0 mm 1 mps 732 mmHg 88%
23:00 +24°C° 0 mm 1 mps 732 mmHg 88%
Show more